User: anonymous   Login
Location: *
(51.1248°S, 108.4023°W)
Time: 10:54:56
(UTC+00:00)
Language:

Cosmos 2181 Rocket - Orbit

View from above orbital plane
View from above orbital plane
View from above satellite
View from above satellite

Ground track
Ground track

The orbit data is extracted from the following two-line orbital elements,

1 21903U 92012B   21259.58221175 -.00000014  00000-0 -31328-4 0  9997
2 21903  82.9338 113.7868 0044053  85.6772 298.2475 13.74527605480565
Epoch (UTC): 16 September 2021 13:58:23
Eccentricity: 0.0044053
inclination: 82.9338°
perigee height: 951 km
apogee height: 1016 km
right ascension of ascending node: 113.7868°
argument of perigee: 85.6772°
revolutions per day: 13.74527605
mean anomaly at epoch: 298.2475°
orbit number at epoch: 48056

The dashed part of the orbit path shows where the satellite is in the earth's shadow,  

DLR